[Date Prev][Date Next][Thread Prev][Thread Next] - [Date Index][Thread Index][Author Index]
2 Line ISS Keps 10-14
- Subject: [sarex] 2 Line ISS Keps 10-14
- From: "Dave Larsen PhD" <doc@xxxxxxxxxxx>
- Date: Thu, 13 Oct 2005 19:18:07 -0700
ISS
1 25544U 98067A 05286.76865936 .00025787 00000-0 18021-3 0 5452
2 25544 051.6447 013.4294 0001367 098.1184 352.9371 15.74101621394341
----
Via the sarex mailing list at AMSAT.ORG courtesy of AMSAT-NA.
To unsubscribe, send "unsubscribe sarex" to Majordomo@amsat.org
AMSAT Home